Location: Las Navas
(40.6024°N, 4.3345°W)
Time: 18:10:28
(UTC+00:00)

Daily predictions for brighter satellites

Satellite Brightness Start Highest point End
(mag) Time Altitude Azimuth Time Altitude Azimuth Time Altitude Azimuth
CZ-3B R/B 4.4 18:42:47 10° SSW 18:48:15 58° ESE 19:15:37 10° NE
STARLINK-1122 4.2 19:04:52 10° WNW 19:08:57 58° SW 19:13:00 10° SE
CSL-04 Rocket 3.7 19:03:54 10° SSE 19:09:13 88° WSW 19:14:32 10° NNW
USA 234 4.2 19:05:01 10° ENE 19:10:20 26° SE 19:15:38 10° S
Okean 1-7 Rocket 3.8 19:06:27 10° N 19:10:51 80° W 19:15:14 10° S
STARLINK-1113 4.5 19:07:16 10° NW 19:11:09 37° NNE 19:15:01 10° E
USA 81 4.2 19:06:47 10° N 19:12:05 86° W 19:17:21 10° S
STARLINK-1126 4.3 19:09:53 10° WNW 19:13:55 52° SW 19:17:57 10° SSE
STARLINK-1119 4.4 19:12:14 10° NW 19:16:09 40° NNE 19:20:04 10° ESE
SJ-6B 4.2 19:14:39 10° ESE 19:17:53 23° ENE 19:21:09 10° NNE
ATLAS CENTAUR Rocket 4.4 19:12:23 10° WSW 19:18:14 44° SSE 19:45:18 12° ESE
CZ-2D R/B 4.2 19:15:19 10° S 19:19:01 52° W 19:22:46 10° NNW
SeaSat 1 3.5 19:15:22 10° NNE 19:20:09 50° WNW 19:24:53 10° SW
STARLINK-1114 4.3 19:17:11 10° NW 19:21:09 43° NNE 19:24:57 11° ESE
SL-16 R/B 2.9 19:16:28 10° SW 19:22:02 59° WNW 19:27:39 10° NNE
SL-14 R/B 3.3 19:20:38 10° N 19:24:41 90° WSW 19:28:40 10° S
Cosmos 1818 4.4 19:21:31 10° SSE 19:25:58 27° ESE 19:30:27 10° NE
STARLINK-1130 (DARKSAT) 4.1 19:22:08 10° NW 19:26:08 46° NNE 19:29:44 12° ESE
CZ-2C R/B 3.3 19:22:42 10° SE 19:27:22 42° ENE 19:31:53 10° N
Cosmos 1758 3.3 19:23:54 10° S 19:27:57 69° E 19:32:02 10° NNE
STARLINK-1084 4.0 19:27:05 10° NW 19:31:08 50° NNE 19:34:31 14° ESE
H-2A R/B 3.9 19:18:52 10° W 19:33:16 27° SW 19:37:16 10° SSE
Cosmos 2228 4.4 19:30:29 10° SE 19:33:26 18° E 19:36:25 10° NE
CZ-4 R/B 3.9 19:31:35 10° SSW 19:34:42 23° W 19:37:49 10° NW
STARLINK-1098 3.9 19:32:04 10° NW 19:36:09 54° NE 19:39:19 16° ESE
Cosmos 2084 Rocket 3.7 19:32:14 10° NNW 19:36:39 56° NE 19:40:26 14° SE
CZ-2C R/B 3.7 19:33:33 10° NE 19:37:23 21° E 19:41:12 10° SE
Meteor 1-21 Rocket 4.5 19:33:38 10° N 19:38:59 47° ENE 19:44:17 10° SSE
Cosmos 1992 Rocket 4.4 19:34:09 10° N 19:39:07 43° ENE 19:43:32 12° SE
Meteor 2-15 Rocket 4.4 19:33:49 10° S 19:39:49 69° E 19:45:52 10° NNE
ARGOS 3.3 19:35:07 10° SSE 19:40:21 54° ENE 19:45:36 10° N
STARLINK-1123 3.8 19:37:03 10° NW 19:41:08 59° NE 19:44:06 18° ESE
SL-4 R/B 2.4 19:38:54 10° SSW 19:41:53 29° SE 19:43:44 18° E
Cosmos 1302 Rocket 4.4 19:37:05 10° NNW 19:42:20 68° WSW 19:47:34 10° S
Cosmos 1603 3.7 19:38:54 10° S 19:44:25 59° ESE 19:49:56 10° NNE
USA 186 1.9 19:42:08 10° SSE 19:45:29 61° ENE 19:48:46 10° N
Cosmos 1726 2.7 19:42:13 10° SSE 19:45:40 36° E 19:49:07 10° NNE
STARLINK-1097 3.7 19:41:59 10° NW 19:46:07 65° NE 19:48:52 20° ESE
H-2A R/B 2.0 19:43:53 10° SSE 19:49:09 78° ENE 19:54:19 10° N
STARLINK-1099 3.6 19:46:58 10° NW 19:51:07 71° NE 19:53:40 22° ESE
Meteor 1-16 Rocket 4.4 19:46:35 10° SSE 19:51:37 43° E 19:56:46 10° NNE
IRS-1A Rocket 4.3 19:46:02 10° SSE 19:51:42 89° NE 19:57:31 10° NNW
SEDSat Delta rocket 4.4 19:49:08 10° WSW 19:53:12 26° S 19:55:22 18° SE
STARLINK-1104 3.6 19:51:57 10° NW 19:56:06 77° NE 19:58:27 25° ESE
Cosmos 2184 Rocket 4.2 19:53:20 10° N 19:59:29 52° E 20:04:58 13° SSE
STARLINK-1144 3.5 19:56:55 10° NW 20:01:04 84° NE 20:03:14 27° SE
Meteor 2-10 4.1 19:55:50 10° S 20:01:07 65° E 20:06:38 10° NNE
MONITOR-E 3.8 19:59:42 19° S 20:01:27 77° W 20:04:05 10° NNW
Cosmos 1953 2.3 20:01:29 10° S 20:05:26 81° W 20:09:25 10° N
STARLINK-1103 3.5 20:01:53 10° NW 20:06:02 88° SW 20:08:00 30° SE
Cosmos 1703 4.1 20:02:50 10° NNE 20:06:22 30° ENE 20:06:52 29° E
Cosmos 2251 Rocket 3.8 20:02:14 10° SSW 20:07:34 73° WNW 20:12:58 10° NNE
ATLAS 5 CENTAUR R/B 4.3 20:02:34 10° S 20:07:38 18° SE 20:09:52 18° SE
FREGAT/IRIS 3.2 20:05:26 13° S 20:07:41 49° W 20:10:21 10° NNW
Cosmos 292 Rocket 3.7 20:03:58 10° NNW 20:08:48 90° ENE 20:12:32 17° SSE
STARLINK-1101 3.6 20:06:52 10° NW 20:11:01 81° SW 20:12:48 33° SE
DMSP B5D2-2 4.2 20:06:56 10° NNE 20:12:02 52° E 20:17:06 10° S
Resurs 01 Rocket 2.4 20:12:28 30° E 20:13:21 33° ENE 20:17:18 10° N
STARLINK-1102 3.7 20:11:52 10° NW 20:16:00 74° SW 20:17:36 36° SE
Cosmos 2058 Rocket 3.9 20:18:19 31° E 20:18:19 31° E 20:22:04 10° NNE
Cosmos 1437 2.4 20:16:44 10° N 20:19:45 69° ENE 20:19:45 69° ENE
STARLINK-1111 3.8 20:16:51 10° NW 20:20:57 67° SW 20:22:22 38° SSE
Cosmos 2154 Rocket 4.2 20:15:11 10° N 20:21:20 49° ENE 20:24:20 29° SE
Cosmos 2369 Rocket 2.2 20:17:56 10° NNW 20:23:39 83° WSW 20:27:18 23° SSE
Nadezhda 1 Rocket 4.0 20:18:42 10° S 20:25:00 64° E 20:31:18 10° NNE
STARLINK-1073 3.9 20:21:51 10° WNW 20:25:56 60° SW 20:27:09 40° SSE
SL-8 R/B 3.8 20:21:34 10° WNW 20:26:19 66° NNE 20:27:50 41° E
Cosmos 1908 3.1 20:27:25 55° SE 20:27:54 62° E 20:31:45 10° NNE
NOSS 3-3 (C) 4.5 20:22:16 10° SW 20:27:59 59° NW 20:34:26 10° NNE
CZ-2C R/B 3.9 20:23:25 10° N 20:28:09 77° WNW 20:32:46 10° SSW
Cosmos 1943 Rocket 2.8 20:23:54 10° NNW 20:29:19 55° WSW 20:33:48 15° S
STARLINK-1121 4.0 20:26:50 10° WNW 20:30:53 54° SW 20:31:55 41° S
Abrixas rocket 4.3 20:29:57 10° NW 20:32:08 18° N 20:32:54 17° NNE
Meteor 1-11 4.4 20:27:08 10° N 20:32:45 52° ENE 20:34:22 40° SE
Aureole 2 Rocket 3.8 20:31:09 10° NW 20:34:22 36° WSW 20:35:46 24° SSW
SL-24 R/B - RUBIN 2 4.4 20:30:13 10° S 20:35:18 46° ESE 20:41:04 10° NE
STARLINK-1106 4.2 20:31:50 10° WNW 20:35:50 49° SW 20:36:42 41° S
Cosmos 1726 Rocket 3.4 20:34:23 29° S 20:36:37 82° E 20:41:04 10° N
Cosmos 2263 4.1 20:33:31 10° NNW 20:39:09 85° WSW 20:41:30 36° SSE
ISS -3.3 20:37:16 10° WNW 20:40:16 56° WSW 20:40:16 56° WSW
STARLINK-1112 4.3 20:36:51 10° WNW 20:40:48 44° SW 20:41:29 40° SSW
Cosmos 1190 Rocket 4.1 20:40:53 49° SE 20:41:25 51° ESE 20:46:33 10° NNE
Cosmos 1943 3.8 20:39:10 10° SW 20:44:43 57° WNW 20:50:19 10° NNE
Cosmos 1825 Rocket 3.9 20:41:08 10° NNW 20:45:29 63° W 20:47:11 35° SSW
STARLINK-1128 4.5 20:41:52 10° WNW 20:45:46 40° SW 20:46:17 38° SSW
Spot 2 Rocket 4.1 20:46:22 40° ENE 20:46:22 40° ENE 20:51:03 10° N
Aureole 1 Rocket 4.2 20:39:58 10° SSW 20:48:03 79° ESE 20:54:37 10° NNE
Cosmos 2074 Rocket 4.4 20:42:09 10° NNW 20:48:21 63° W 20:53:56 13° S
Cosmos 1140 Rocket 3.9 20:51:23 44° ENE 20:51:23 44° ENE 20:55:18 10° NNE
SPOT 3 Rocket 4.0 20:47:30 23° S 20:50:41 58° WSW 20:55:51 10° NNW
USA 234 3.3 20:47:11 10° NE 20:53:45 82° NW 21:00:17 10° SW
ATLAS 2AS CENTAUR R/B 3.0 20:46:53 10° NNW 20:54:21 58° NE 20:56:14 45° E
MetOp-B 4.1 20:57:15 59° E 20:57:31 60° ENE 21:02:47 10° N
Meteor 2-17 Rocket 4.4 20:52:56 10° N 20:59:07 87° W 21:01:25 41° S
MOS 1 Rocket 4.1 20:58:33 10° N 21:03:49 60° WNW 21:09:09 10° SSW
Cosmos 1953 Rocket 4.0 21:00:07 10° NNW 21:04:31 59° W 21:05:05 54° SW
Terra 4.0 21:07:36 14° NE 21:07:36 14° NE 21:08:50 10° NNE
Cosmos 921 Rocket 4.4 21:07:21 10° N 21:09:39 29° NNE 21:09:39 29° NNE
Cosmos 614 Rocket 4.5 21:06:38 10° SSW 21:11:46 58° WNW 21:16:56 10° NNE
Cosmos 407 Rocket 3.7 21:09:47 22° SSW 21:13:09 68° WNW 21:18:17 10° NNE
SPOT 1/Viking Rocket 4.3 21:17:03 41° NE 21:17:03 41° NE 21:20:56 10° N
CZ-2C R/B 3.5 21:12:57 10° N 21:17:52 46° WNW 21:22:48 10° SW
Cosmos 1656 Rocket 4.0 21:15:27 10° NNW 21:21:00 59° WSW 21:21:38 55° SW
SL-4 R/B 4.1 21:18:12 10° W 21:19:26 19° W 21:19:26 19° W
Cosmos 1340 Rocket 4.2 21:23:17 37° NW 21:23:17 37° NW 21:26:10 10° N
ERS-1 Rocket 4.2 21:27:58 33° NNE 21:27:58 33° NNE 21:31:02 10° N
COSMOS 2455 3.3 21:26:12 10° NNW 21:31:27 51° NNE 21:31:27 51° NNE
Cosmos 2341 Rocket 3.9 21:26:45 10° N 21:33:10 82° W 21:33:32 78° SW
Resurs 01 Rocket 3.7 21:50:02 22° W 21:50:02 22° W 21:53:17 10° NW
Cosmos 2218 Rocket 4.3 21:47:35 10° N 21:52:39 62° N 21:52:39 62° N
Cosmos 2181 Rocket 4.4 22:03:27 58° WNW 22:03:27 58° WNW 22:09:19 10° N
NOSS 3-4 (A) 4.3 22:05:49 10° NW 22:12:24 55° WSW 22:12:24 55° WSW
NOSS 3-4 (C) 4.3 22:05:55 10° NW 22:12:30 55° WSW 22:12:30 55° WSW
Terra 4.4 22:46:29 18° NNW 22:46:29 18° NNW 22:47:42 10° NNW
ATLAS 2AS CENTAUR R/B 4.2 22:38:40 10° NW 22:43:41 28° W 22:43:41 28° W
CZ-4C R/B 4.1 22:57:21 10° NNW 23:02:42 33° NNE 23:02:42 33° NNE
Cosmos 1980 Rocket 4.5 23:13:59 10° N 23:15:38 19° N 23:15:38 19° N
